EW9290 Weather Reports


Display with metric or nautical units.
time (UTC)temp
F
wind
direction
speed
MPH
gust
MPH
rain 1hr
in
rain 24hr
in
rain mn
in
humidity
%
barometer
mb
20260505001621 69 227 1.0 2.0 0.00 0.00 0.00 56 1001.6
20260505001118 69 229 2.0 2.0 0.00 0.00 0.00 57 1001.3
20260505000615 69 230 4.0 6.0 0.00 0.00 0.00 56 1001.4
20260505000113 69 201 4.0 5.0 0.00 0.00 0.00 56 1001.1
20260504235609 69 230 3.0 3.0 0.00 0.00 0.00 55 1001.2
20260504235106 69 216 6.0 6.0 0.00 0.00 0.00 56 1001.2
20260504234603 70 232 5.0 7.0 0.00 0.00 0.00 56 1000.9
20260504234100 70 229 5.0 7.0 0.00 0.00 0.00 55 1000.8
20260504233555 70 194 6.0 10.0 0.00 0.00 0.00 55 1000.8
20260504233052 71 215 13.0 16.0 0.00 0.00 0.00 54 1000.8
20260504232549 71 228 10.0 11.0 0.00 0.00 0.00 54 1000.8
20260504232047 71 210 5.0 6.0 0.00 0.00 0.00 55 1000.8
20260504231543 71 223 8.0 10.0 0.00 0.00 0.00 54 1001.0
20260504231039 71 246 5.0 7.0 0.00 0.00 0.00 54 1001.0
20260504230536 71 238 8.0 9.0 0.00 0.00 0.00 54 1000.9
20260504230035 71 233 9.0 13.0 0.00 0.00 0.00 55 1001.0
20260504225532 71 221 5.0 6.0 0.00 0.00 0.00 54 1001.1
20260504225029 72 243 8.0 10.0 0.00 0.00 0.00 54 1001.0
20260504224525 72 244 5.0 7.0 0.00 0.00 0.00 54 1001.0
20260504224023 71 261 6.0 8.0 0.00 0.00 0.00 55 1001.1
20260504223519 71 215 6.0 10.0 0.00 0.00 0.00 56 1001.5
20260504223015 71 252 6.0 8.0 0.00 0.00 0.00 55 1001.3
20260504222512 71 228 9.0 17.0 0.00 0.00 0.00 55 1001.2
20260504222010 71 226 7.0 9.0 0.00 0.00 0.00 55 1001.2
20260504221507 71 206 13.0 14.0 0.00 0.00 0.00 56 1001.1
20260504221003 71 232 5.0 8.0 0.00 0.00 0.00 56 1001.4
20260504220500 71 194 9.0 11.0 0.00 0.00 0.00 56 1001.4
20260504215957 72 213 7.0 8.0 0.00 0.00 0.00 55 1001.5
20260504215453 70 231 6.0 10.0 0.00 0.00 0.00 60 1001.3
20260504214950 69 195 5.0 6.0 0.00 0.00 0.00 62 1001.3
20260504214446 68 234 10.0 14.0 0.00 0.00 0.00 63 1001.5
20260504213943 70 226 12.0 15.0 0.00 0.00 0.00 57 1001.6
20260504213439 70 245 10.0 13.0 0.00 0.00 0.00 56 1001.5
20260504212937 71 222 7.0 10.0 0.00 0.00 0.00 56 1001.5
20260504212432 71 212 10.0 11.0 0.00 0.00 0.00 56 1001.7
20260504211931 72 224 9.0 10.0 0.00 0.00 0.00 54 1001.6
20260504211426 72 239 13.0 15.0 0.00 0.00 0.00 53 1001.5
20260504210924 72 179 9.0 11.0 0.00 0.00 0.00 53 1001.9
20260504210421 72 228 11.0 16.0 0.00 0.00 0.00 53 1001.9
20260504205918 71 207 5.0 7.0 0.00 0.00 0.00 55 1001.7
20260504205416 72 202 9.0 13.0 0.00 0.00 0.00 53 1001.8
20260504204914 72 169 7.0 9.0 0.00 0.00 0.00 52 1002.0
20260504204412 72 215 3.0 3.0 0.00 0.00 0.00 53 1001.9
20260504203911 71 255 5.0 6.0 0.00 0.00 0.00 54 1001.9
20260504203408 71 220 9.0 10.0 0.00 0.00 0.00 54 1002.3
20260504202903 71 254 9.0 11.0 0.00 0.00 0.00 53 1001.9
20260504202400 71 266 7.0 10.0 0.00 0.00 0.00 54 1002.3
20260504201857 71 246 9.0 11.0 0.00 0.00 0.00 53 1002.2
20260504201354 71 219 10.0 14.0 0.00 0.00 0.00 52 1002.2
20260504200852 71 259 9.0 10.0 0.00 0.00 0.00 52 1002.3
20260504200348 71 230 7.0 8.0 0.00 0.00 0.00 53 1002.3
20260504195845 71 218 9.0 13.0 0.00 0.00 0.00 52 1002.5
20260504195340 72 205 6.0 8.0 0.00 0.00 0.00 52 1002.5
20260504194837 70 237 3.0 5.0 0.00 0.00 0.00 54 1002.4
20260504194333 70 214 7.0 9.0 0.00 0.00 0.00 52 1002.7
20260504193829 71 202 7.0 9.0 0.00 0.00 0.00 52 1002.4
20260504193327 71 243 5.0 7.0 0.00 0.00 0.00 51 1002.9
20260504192826 71 226 5.0 7.0 0.00 0.00 0.00 52 1003.1
20260504192323 70 237 6.0 7.0 0.00 0.00 0.00 53 1002.9
20260504191821 70 227 4.0 5.0 0.00 0.00 0.00 54 1003.0
20260504191319 70 179 9.0 11.0 0.00 0.00 0.00 54 1003.2
20260504190814 70 206 9.0 10.0 0.00 0.00 0.00 54 1003.3
20260504190310 70 157 6.0 8.0 0.00 0.00 0.00 54 1003.1
20260504185807 70 205 5.0 6.0 0.00 0.00 0.00 55 1003.1
20260504185304 70 183 10.0 11.0 0.00 0.00 0.00 54 1003.3
20260504184800 69 180 5.0 7.0 0.00 0.00 0.00 55 1003.4
20260504184256 69 225 5.0 7.0 0.00 0.00 0.00 55 1003.5
20260504183752 69 210 11.0 15.0 0.00 0.00 0.00 53 1003.3
20260504183249 68 200 7.0 7.0 0.00 0.00 0.00 54 1003.6
20260504182747 68 202 9.0 10.0 0.00 0.00 0.00 54 1003.7
20260504182244 69 206 9.0 11.0 0.00 0.00 0.00 54 1003.8
20260504181741 69 179 4.0 5.0 0.00 0.00 0.00 53 1003.8
20260504181239 69 213 5.0 6.0 0.00 0.00 0.00 53 1003.8
20260504180738 69 200 4.0 6.0 0.00 0.00 0.00 52 1003.7
20260504180236 68 251 7.0 8.0 0.00 0.00 0.00 51 1003.6
20260504175733 68 192 4.0 6.0 0.00 0.00 0.00 52 1003.7
20260504175230 68 224 6.0 7.0 0.00 0.00 0.00 52 1003.6
20260504174728 69 178 2.0 3.0 0.00 0.00 0.00 52 1003.6
20260504174225 68 254 5.0 6.0 0.00 0.00 0.00 50 1003.9
20260504173721 68 211 5.0 6.0 0.00 0.00 0.00 52 1004.0
20260504173219 68 238 5.0 7.0 0.00 0.00 0.00 52 1004.1
20260504172715 68 238 3.0 5.0 0.00 0.00 0.00 54 1004.1
20260504172212 67 192 4.0 5.0 0.00 0.00 0.00 54 1004.0
20260504171708 67 204 9.0 10.0 0.00 0.00 0.00 53 1004.1
20260504171206 67 173 4.0 5.0 0.00 0.00 0.00 53 1004.2
20260504170702 68 232 11.0 11.0 0.00 0.00 0.00 52 1004.4
20260504170200 68 193 8.0 9.0 0.00 0.00 0.00 53 1004.4
20260504160118 65 181 4.0 10.0 0.00 0.00 0.00 56 1004.7
20260504151045 63 189 4.0 6.0 0.00 0.00 0.00 58 1005.4
20260504150542 62 173 4.0 6.0 0.00 0.00 0.00 59 1005.5
20260504141008 60 188 6.0 7.0 0.00 0.00 0.00 59 1005.4
20260504140505 59 200 5.0 7.0 0.00 0.00 0.00 60 1005.6
20260504130429 56 203 5.0 6.0 0.00 0.00 0.00 62 1006.0
20260504110317 49 185 4.0 6.0 0.00 0.00 0.00 70 1006.1
20260504100234 49 197 3.0 3.0 0.00 0.00 0.00 68 1006.2
20260504081628 51 203 2.0 2.0 0.00 0.00 0.00 63 1006.5
20260504081123 51 209 5.0 6.0 0.00 0.00 0.00 63 1006.5
20260504080620 51 216 5.0 7.0 0.00 0.00 0.00 63 1006.5
20260504080117 51 191 1.0 2.0 0.00 0.00 0.00 63 1006.6
20260504050433 49 199 3.0 5.0 0.00 0.00 0.00 69 1009.0
20260504045930 49 179 4.0 5.0 0.00 0.00 0.00 69 1009.2
20260504045426 49 155 4.0 5.0 0.00 0.00 0.00 69 1009.1
20260504044922 49 171 4.0 6.0 0.00 0.00 0.00 70 1009.1
20260504044420 49 222 2.0 2.0 0.00 0.00 0.00 69 1009.1
20260504043917 49 191 3.0 6.0 0.00 0.00 0.00 69 1009.0
20260504043414 49 193 4.0 5.0 0.00 0.00 0.00 69 1009.2
20260504042911 49 202 2.0 3.0 0.00 0.00 0.00 69 1009.3
20260504042408 49 188 3.0 5.0 0.00 0.00 0.00 69 1009.4
20260504041904 50 172 2.0 2.0 0.00 0.00 0.00 68 1009.4
20260504041400 50 195 2.0 2.0 0.00 0.00 0.00 69 1009.4
20260504040856 50 183 3.0 3.0 0.00 0.00 0.00 67 1009.4
20260504040354 50 191 2.0 2.0 0.00 0.00 0.00 67 1009.6
20260504035850 50 188 3.0 3.0 0.00 0.00 0.00 66 1009.6
20260504035348 50 197 3.0 3.0 0.00 0.00 0.00 66 1009.7
20260504034844 50 194 2.0 2.0 0.00 0.00 0.00 66 1009.8
20260504034342 50 194 1.0 1.0 0.00 0.00 0.00 67 1009.7
20260504033838 51 181 1.0 1.0 0.00 0.00 0.00 66 1009.8
20260504033337 51 181 1.0 2.0 0.00 0.00 0.00 65 1009.7
20260504032833 51 189 3.0 3.0 0.00 0.00 0.00 65 1009.7
20260504032330 51 179 4.0 5.0 0.00 0.00 0.00 64 1009.9
20260504031827 51 201 2.0 2.0 0.00 0.00 0.00 64 1009.8
20260504031324 51 201 2.0 2.0 0.00 0.00 0.00 64 1009.9
20260504030820 51 178 3.0 5.0 0.00 0.00 0.00 63 1009.8
20260504030318 51 230 3.0 3.0 0.00 0.00 0.00 63 1010.0
20260504025814 51 203 1.0 2.0 0.00 0.00 0.00 64 1010.0
20260504025311 51 202 2.0 2.0 0.00 0.00 0.00 64 1010.1
20260504024808 51 202 3.0 3.0 0.00 0.00 0.00 64 1009.9
20260504024304 51 194 5.0 6.0 0.00 0.00 0.00 65 1009.9
20260504023801 51 202 2.0 3.0 0.00 0.00 0.00 65 1010.3
20260504023257 50 200 2.0 2.0 0.00 0.00 0.00 65 1010.1
20260504022753 51 208 1.0 1.0 0.00 0.00 0.00 66 1010.3
20260504022250 51 206 1.0 2.0 0.00 0.00 0.00 65 1010.2
20260504021747 51 232 4.0 6.0 0.00 0.00 0.00 66 1010.2
20260504021244 51 211 2.0 2.0 0.00 0.00 0.00 65 1010.2
20260504020741 51 216 3.0 3.0 0.00 0.00 0.00 65 1010.3
20260504020237 51 258 6.0 9.0 0.00 0.00 0.00 65 1010.2
20260504015733 51 228 2.0 2.0 0.00 0.00 0.00 65 1010.3
20260504015230 51 242 2.0 2.0 0.00 0.00 0.00 64 1010.5
20260504014726 51 237 6.0 7.0 0.00 0.00 0.00 64 1010.5
20260504014223 51 237 5.0 7.0 0.00 0.00 0.00 62 1010.7
20260504013721 51 257 7.0 10.0 0.00 0.00 0.00 62 1010.3
20260504013218 52 277 3.0 3.0 0.00 0.00 0.00 60 1010.4
20260504012714 52 244 7.0 8.0 0.00 0.00 0.00 57 1010.1
20260504012212 53 237 3.0 3.0 0.00 0.00 0.00 54 1010.1
20260504011709 53 258 4.0 5.0 0.00 0.00 0.00 52 1010.0
20260504011206 52 222 7.0 14.0 0.00 0.00 0.00 53 1009.7
20260504010702 53 209 0.0 0.0 0.00 0.00 0.00 53 1009.7
20260504010157 53 209 1.0 1.0 0.00 0.00 0.00 52 1009.6
20260504005654 53 214 1.0 1.0 0.00 0.00 0.00 52 1009.7
20260504005151 53 208 1.0 1.0 0.00 0.00 0.00 51 1009.6
20260504004649 54 214 1.0 1.0 0.00 0.00 0.00 50 1009.5
20260504004146 54 222 2.0 2.0 0.00 0.00 0.00 50 1009.4
20260504003642 54 218 1.0 2.0 0.00 0.00 0.00 50 1009.6
20260504003139 55 247 2.0 2.0 0.00 0.00 0.00 50 1009.5
20260504002636 55 233 3.0 3.0 0.00 0.00 0.00 48 1009.7
20260504002134 55 226 2.0 2.0 0.00 0.00 0.00 48 1009.6